Regional Weather Roundup
Issued by NWS State College, PA

Home | Current Version | Previous Version | Text Only | Print | Product List | Glossary Off
Versions: 1 2 3 4 5 6 7 8 9 10 11 12 13 14 15 16 17 18 19 20 21 22 23 24 25 26 27 28 29 30 31 32 33 34 35 36 37 38 39 40 41 42 43 44 45 46 47 48 49 50

000
ASUS41 KCTP 272010
RWRCTP

REGIONAL WEATHER ROUNDUP
NATIONAL WEATHER SERVICE STATE COLLEGE PA
400 PM EDT MON JUL 27 2015

Note: "fair" indicates few or no clouds below 12,000 feet with no
significant weather and/or obstructions to visibility.

* = STATION THAT DOES NOT REPORT PRECIPITATION /E.G. RAIN...SNOW...ETC/
    THUNDER OR FOG.

PAZ002>004-007>009-013>016-020>023-029>032-272100-
WESTERN PENNSYLVANIA

CITY           SKY/WX    TMP DP  RH WIND       PRES   REMARKS
ERIE           SUNNY     84  65  52 N9        30.02S
MEADVILLE      LGT RAIN  87  53  31 VRB3      30.03F
FRANKLIN*      SUNNY     84  55  37 CALM      30.04S
NEW CASTLE     FAIR      87  63  44 CALM      30.01F
BEAVER COUNTY  MOSUNNY   84  61  45 N5        30.01F
BUTLER*        MOSUNNY   84  64  51 NE3       30.02F
PITTSBURGH INT MOSUNNY   89  61  38 NE9       30.00F
PITTSBURGH     MOSUNNY   85  59  41 CALM      29.99F
INDIANA*       MOSUNNY   84  66  54 CALM      30.04S
LATROBE        MOSUNNY   84  64  51 CALM      30.00F
WASHINGTON CO* NOT AVBL
$$

PAZ004>006-010>012-017>019-024>028-033>037-041-042-045-046-049>053-272100-
CENTRAL PENNSYLVANIA

CITY           SKY/WX    TMP DP  RH WIND       PRES   REMARKS
BRADFORD       SUNNY     83  50  31 NE7       30.07F
DUBOIS         MOSUNNY   86  59  39 E5        30.03F
CLEARFIELD     MOSUNNY   83  63  50 VRB5      30.03F
JOHNSTOWN      MOSUNNY   83  60  45 N5        30.05F
ALTOONA        MOSUNNY   83  67  58 NE5       30.02F
STATE COLLEGE  MOSUNNY   81  70  69 VRB3      30.02F
WILLIAMSPORT   MOSUNNY   84  68  58 S6        29.98S
SELINSGROVE    SUNNY     83  70  64 CALM      30.00F
FT INDIANTOWN  MOSUNNY   82  70  68 VRB3      30.00F
CAPITAL CITY   MOSUNNY   83  69  62 E7        29.98F
HARRISBURG     PTSUNNY   85  71  63 VRB3      29.98F
YORK           MOSUNNY   84  71  65 SE6       29.99F
$$

PAZ038>040-043-044-047-048-054-055-060>062-067>071-272100-
EASTERN PENNSYLVANIA

CITY           SKY/WX    TMP DP  RH WIND       PRES   REMARKS
SCRANTON       MOSUNNY   84  67  56 MISG      30.01F
MOUNT POCONO   MOSUNNY   78  65  63 VRB5      30.06F
ALLENTOWN      CLOUDY    82  68  62 CALM      30.00F
QUAKERTOWN*    PTCLDY    84  70  61 W5        30.01F
READING        PTSUNNY   85  67  54 S3        29.98F
LANCASTER      MOSUNNY   82  70  66 VRB5      29.99F
COATESVILLE    CLEAR     79  72  78 SE3       30.02F
POTTSTOWN      RAIN      78  71  79 W6        30.01F
BLUE BELL      MOSUNNY   82  70  65 CALM      29.99S
DOYLESTOWN     PTSUNNY   81  67  62 CALM      29.99F
WILLOW GROVE   NOT AVBL
NORTH PHILA    MOSUNNY   84  66  54 S5        30.00F
PHILADELPHIA   PTSUNNY   85  68  56 SW9       29.99F
$$


USA.gov is the U.S. government's official web portal to all federal, state and local government web resources and services.